TimeCDT,TemperatureF,Dew PointF,Humidity,Sea Level PressureIn,VisibilityMPH,Wind Direction,Wind SpeedMPH,Gust SpeedMPH,PrecipitationIn,Events,Conditions,WindDirDegrees,DateUTC
12:54 AM,64.9,61.0,87,30.19,10.0,Calm,Calm,-,N/A,,Clear,0,2013-09-06 05:54:00
1:54 AM,64.9,61.0,87,30.19,10.0,Calm,Calm,-,N/A,,Clear,0,2013-09-06 06:54:00
2:54 AM,64.0,60.1,87,30.18,10.0,Calm,Calm,-,N/A,,Clear,0,2013-09-06 07:54:00
3:54 AM,62.1,59.0,90,30.17,10.0,Calm,Calm,-,N/A,,Clear,0,2013-09-06 08:54:00
4:54 AM,60.1,57.0,90,30.17,10.0,Calm,Calm,-,N/A,,Clear,0,2013-09-06 09:54:00
5:54 AM,57.9,55.9,93,30.18,8.0,ENE,4.6,-,N/A,,Clear,60,2013-09-06 10:54:00
6:54 AM,59.0,55.9,90,30.19,7.0,Calm,Calm,-,N/A,,Clear,0,2013-09-06 11:54:00
7:54 AM,64.9,60.1,84,30.19,10.0,Calm,Calm,-,N/A,,Clear,0,2013-09-06 12:54:00
8:54 AM,72.0,62.1,71,30.19,10.0,SSE,4.6,-,N/A,,Clear,150,2013-09-06 13:54:00
9:54 AM,77.0,63.0,62,30.19,10.0,Calm,Calm,-,N/A,,Clear,0,2013-09-06 14:54:00
10:54 AM,82.0,63.0,52,30.19,10.0,SSE,5.8,-,N/A,,Clear,160,2013-09-06 15:54:00
11:54 AM,84.0,61.0,46,30.17,10.0,SSW,8.1,-,N/A,,Clear,210,2013-09-06 16:54:00
12:54 PM,84.0,62.1,47,30.15,10.0,South,8.1,-,N/A,,Clear,190,2013-09-06 17:54:00
1:54 PM,84.9,61.0,44,30.13,10.0,Variable,6.9,-,N/A,,Clear,0,2013-09-06 18:54:00
2:54 PM,86.0,61.0,43,30.10,10.0,South,6.9,-,N/A,,Clear,170,2013-09-06 19:54:00
3:54 PM,86.0,60.1,41,30.09,10.0,South,6.9,-,N/A,,Clear,190,2013-09-06 20:54:00
4:54 PM,86.0,61.0,43,30.07,10.0,South,6.9,-,N/A,,Clear,190,2013-09-06 21:54:00
5:54 PM,84.9,60.1,43,30.07,10.0,SW,6.9,-,N/A,,Clear,230,2013-09-06 22:54:00
6:54 PM,82.0,62.1,51,30.06,10.0,SW,4.6,-,N/A,,Clear,230,2013-09-06 23:54:00
7:54 PM,77.0,64.0,64,30.06,10.0,Calm,Calm,-,N/A,,Clear,0,2013-09-07 00:54:00
8:54 PM,73.9,64.0,71,30.06,10.0,Calm,Calm,-,N/A,,Clear,0,2013-09-07 01:54:00
9:54 PM,69.1,63.0,81,30.06,9.0,Calm,Calm,-,N/A,,Clear,0,2013-09-07 02:54:00
10:54 PM,66.9,62.1,84,30.06,8.0,Calm,Calm,-,N/A,,Clear,0,2013-09-07 03:54:00
11:54 PM,66.9,61.0,81,30.05,9.0,Calm,Calm,-,N/A,,Clear,0,2013-09-07 04:54:00